Regional Weather Roundup
Issued by NWS Upton, NY

Current Version | Previous Version | Graphics & Text | Print | Product List | Glossary Off
Versions: 1 2 3 4 5 6 7 8 9 10 11 12 13 14 15 16 17 18 19 20 21 22 23 24 25 26 27 28 29 30 31 32 33 34 35 36 37 38 39 40 41 42 43 44 45 46 47 48 49

000
ASUS41 KOKX 260905
RWROKX

REGIONAL WEATHER ROUNDUP
NATIONAL WEATHER SERVICE NEW YORK NY
400 AM EST MON JAN 26 2015

NOTE: "FAIR" INDICATES FEW OR NO CLOUDS BELOW 12,000 FEET WITH NO
SIGNIFICANT WEATHER AND/OR OBSTRUCTIONS TO VISIBILITY.

NYZ071-072-176-178-NJZ106-104-261000-
NEW YORK CITY METRO AREA


CITY           SKY/WX    TMP DP  RH WIND       PRES   REMARKS
CENTRAL PARK   CLOUDY    26   6  42 E5        30.04R WCI  20
LAGUARDIA APRT CLOUDY    25   9  50 NE16      30.03R WCI  12
KENNEDY INTL   FLURRIES  27   7  42 NE13      30.03R WCI  16
NEWARK/LIBERTY CLOUDY    24  10  55 N14       30.03R WCI  12
BRNX BOT. GARD   N/A    N/A N/A N/A NE3       30.05S
TETERBORO      CLOUDY    24   2  38 NE10      30.03R WCI  14
$$

NYZ177-179-078>081-261000-
LONG ISLAND NEW YORK

CITY           SKY/WX    TMP DP  RH WIND       PRES   REMARKS
FARMINGDALE    CLOUDY    26  10  50 NE12      30.02F WCI  16
ISLIP          CLOUDY    26  11  52 NE13      30.01F WCI  15
SHIRLEY        CLOUDY    26   9  48 NE7       30.04S WCI  18
WESTHAMPTON    CLOUDY    26   9  48 NE9       30.04F WCI  17
MONTAUK POINT    N/A     27   9  46 NE7       30.06S WCI  19
$$

NYZ052-065-067-261000-
HUDSON VALLEY

CITY           SKY/WX    TMP DP  RH WIND       PRES   REMARKS
WHITE PLAINS   CLOUDY    21   3  45 NE6       30.00F WCI  13
NEWBURGH       CLOUDY    18   5  57 E12G17    30.03S WCI   5
MONTGOMERY     CLOUDY    17   3  54 NE10      30.02S WCI   5
POUGHKEEPSIE   CLOUDY    18   2  49 N8        30.06S WCI   8
ALBANY         CLOUDY    10  -1  61 N6        30.10F WCI   0
$$

NJZ001-105-106-008-010-013-015-019>022-104-261000-
NEW JERSEY

CITY           SKY/WX    TMP DP  RH WIND       PRES   REMARKS
NEWARK/LIBERTY CLOUDY    24  10  55 N14       30.03R WCI  12
TETERBORO      CLOUDY    24   2  38 NE10      30.03R WCI  14
CALDWELL       CLOUDY    22   2  42 E10G17    30.03R WCI  11
MORRISTOWN     FLURRIES  25   7  46 NE10      30.02S WCI  15
SOMERVILLE     LGT SNOW  24  17  74 NE9       29.99S WCI  14
SUSSEX         CLOUDY    19   2  47 N10       30.00S WCI   7
ANDOVER          N/A     18   8  65 VRB3      29.98F
TRENTON        LGT SNOW  26  20  77 NE12      29.96F WCI  16
MILLVILLE      CLOUDY    33  26  75 NE13G18   29.90F WCI  24
ATLANTIC CITY  CLOUDY    35  25  66 NE16      29.91F WCI  25
WRIGHTSTOWN    CLOUDY    30  23  77 NE14      29.93F WCI  19
TOMS RIVER     CLOUDY    32  21  64 NE14G21   29.96F WCI  22
BELMAR         CLOUDY    28  18  64 NE17      29.97F WCI  16
$$

PAZ047>061-062-071-261000-
EASTERN PENNSYLVANIA

CITY           SKY/WX    TMP DP  RH WIND       PRES   REMARKS
PHILADELPHIA   CLOUDY    30  22  72 NE12      29.94F WCI  20
ALLENTOWN      LGT SNOW  22  16  78 NE16      29.96F WCI   8
SCRANTON       LGT SNOW  16  11  80 NE7       29.94S VSB 1   WCI   6
$$

CTZ002-004>006-009-010-012-RIZ004-006-007-MAZ004-011-015-261000-
SOUTHERN NEW ENGLAND
 IN CT

CITY           SKY/WX    TMP DP  RH WIND       PRES   REMARKS
BRADLEY INTL   CLOUDY    17   2  51 N10       30.06S WCI   5
HARTFORD       CLOUDY    18   5  57 N13       30.08R WCI   5
DANBURY        CLOUDY    19   2  47 NE6       30.04S WCI  11
WTRBRY/OXFORD  CLOUDY    18   0  45 NE3       30.00S
BRIDGEPORT     CLOUDY    23   7  50 NE10      30.05F WCI  12
MERIDEN        CLOUDY    20   5  52 N10       30.06R WCI   9
NEW HAVEN      CLOUDY    22   7  52 N9        30.05S WCI  12
CHESTER        CLOUDY    21   7  53 NE6       30.03S WCI  14
GROTON         CLOUDY    22   5  48 NE6       30.06R WCI  14
WILLIMANTIC    CLOUDY    19   4  51 N6        30.06S WCI  11

 IN RI

CITY           SKY/WX    TMP DP  RH WIND       PRES   REMARKS
PROVIDENCE     MOCLDY    19   6  57 NE13      30.08S WCI   6
BLOCK ISLAND   CLOUDY    25   7  46 NE12G17   30.03S WCI  14
WESTERLY       CLOUDY    22   6  50 NE7       30.06R WCI  13

 IN MA

CITY           SKY/WX    TMP DP  RH WIND       PRES   REMARKS
BOSTON         CLOUDY    13  -1  54 N7        30.12R WCI   3
WORCESTER      MOCLDY    11  -1  58 N6        30.00R WCI   1
WESTFIELD      MOCLDY    14   1  56 E3        30.07R
PROVINCETOWN   MOCLDY    25  16  68 N10       30.09R WCI  15
NANTUCKET      CLOUDY    27  16  63 N16       30.05R WCI  15
$$

ANZ330-335-338-340-345-350-353-355-261000-
COASTAL MARINE OBSERVATIONS


STATION/POSITION TIME  SKY/WX   TEMP    WIND        PRES    VSBY  WAVE
                                AIR SEA DIR/SP/G                  HT/PER
                 (UTC)          (F)     (DEG/KT/KT) (MB)    (MI)  (FT/S)
NY HARB ENTRANCE 0900            30 42   50/ 17/ 21 1015.6          3/10
4S FIRE IS       0900               39                N/A           3/11
20S FIRE ISLAND  0800               41              1016.0          4/11
23SW MTP         0900                                 N/A           4/11
HUDSON CANYON    NOT AVBL
EXECUTION ROCKS  0900            26 35   50/ 16/ 21   N/A
WESTERN LI SOUND 0900            24      50/ 12/ 17   N/A           1/ 3
CENTRAL LI SOUND 0800            24 36   30/ 12/ 16   N/A           2/ 3
EASTERN LI SOUND NOT AVBL
ROBBINS REEF     0900            24      60/ 17/ 20 1015.2
$$


>>>>>>>>>>>>>>>>>>>>>>>>>>>> KEY <<<<<<<<<<<<<<<<<<<<<<<<<<<
>                                                          <
>     SKY/WX - SKY CONDITION/PRESENT WEATHER               <
>     TMP    - TEMPERATURE IN FAHRENHEIT                   <
>     DP     - DEWPOINT IN FAHRENHEIT                      <
>     RH     - RELATIVE HUMIDITY IN PERCENT                <
>     WIND   - DIRECTION AND SPEED IN MPH                  <
>     PRES   - MEAN SEA LEVEL PRESSURE IN INCHES OF HG     <
>     WCI    - WIND CHILL INDEX                            <
>     VSB    - VISIBILITY IN MILES                         <
>     HX     - HEAT INDEX                                  <
>     TC     - TEMPERATURE IN CELSIUS                      <
>     VRB    - VARIABLE WIND DIRECTION                     <
>                                                          <
>>>>>>>>>>>>>>>>>>>>>>>>>>>> KEY <<<<<<<<<<<<<<<<<<<<<<<<<<<




USA.gov is the U.S. government's official web portal to all federal, state and local government web resources and services.